Le nostre stazioni meteo in Italia

Pubblicità
Il mio iltempo24.it
Punta Marina, Italia (16146): Temperatura & dewpoint: 07.11.2019 00:00:00 - 13.11.2019 00:00:00 (CET)Punta Marina, Italia (16146): velocità del vento: 07.11.2019 00:00:00 - 13.11.2019 00:00:00 (CET)Punta Marina, Italia (16146): direzione del vento: 07.11.2019 00:00:00 - 13.11.2019 00:00:00 (CET)Punta Marina, Italia (16146): reduced air pressure: 07.11.2019 00:00:00 - 13.11.2019 00:00:00 (CET)Punta Marina, Italia (16146): visibility: 07.11.2019 00:00:00 - 13.11.2019 00:00:00 (CET)Punta Marina, Italia (16146): ore di luce: 07.11.2019 00:00:00 - 13.11.2019 00:00:00 (CET)
Data & Tempo tt [°C] td [°C] ff [km/h] ff [kn] dd ppp [hPa] vv [km] sd [min]
13.11.2019 00:00:00 - - - - - - - -
12.11.2019 23:00:00 - - - - - - - -
12.11.2019 22:00:00 - - - - - - - -
12.11.2019 21:00:00 - - - - - - - -
12.11.2019 20:00:00 11,0 10,0 15 8 - - - -
12.11.2019 19:00:00 13,0 12,0 15 8 - - 3,0 -
12.11.2019 18:00:00 10,0 10,0 11 6 ONO - 5 -
12.11.2019 17:00:00 9,0 9,0 9 5 - - 6 -
12.11.2019 16:00:00 9,2 8,8 8 4 O 997,4 8 0
12.11.2019 15:00:00 9,0 9,0 15 8 ONO - 5 -
12.11.2019 14:00:00 9,0 9,0 13 7 ONO - 5 -
12.11.2019 13:00:00 9,4 8,7 15 8 ONO 1001,2 5 0
12.11.2019 12:00:00 10,0 9,0 15 8 ONO - 7 -
12.11.2019 11:00:00 10,0 9,0 13 7 O - 7 -
12.11.2019 10:00:00 9,6 9,1 11 6 O 1002,0 5 0
12.11.2019 09:00:00 10,0 9,0 13 7 ONO - 5 -
12.11.2019 08:00:00 10,0 9,0 11 6 O - 5 -
12.11.2019 07:00:00 9,4 8,9 13 7 O 1003,9 5 0
12.11.2019 06:00:00 9,0 9,0 11 6 O - - -
12.11.2019 05:00:00 10,0 9,0 8 4 O - - -
12.11.2019 04:00:00 9,6 9,1 11 6 O 1006,8 - 0
12.11.2019 03:00:00 10,0 9,0 8 4 O - - -
12.11.2019 02:00:00 10,0 9,0 5 3 O - - -
12.11.2019 01:00:00 9,4 9,2 5 3 O 1008,5 - 0
12.11.2019 00:00:00 10,0 9,0 4 2 - - - -
11.11.2019 23:00:00 10,0 9,0 8 4 ONO - - -
11.11.2019 22:00:00 9,5 9,2 4 2 N 1010,2 - 0
11.11.2019 21:00:00 10,0 9,0 4 2 - - - -
11.11.2019 20:00:00 10,0 9,0 4 2 - - - -
11.11.2019 19:00:00 10,0 9,4 4 2 N 1011,1 3,0 0
11.11.2019 18:00:00 11,0 10,0 4 2 - - 5 -
11.11.2019 17:00:00 11,0 10,0 8 4 ONO - 5 -
11.11.2019 16:00:00 10,6 9,7 5 3 O 1011,6 5 0
11.11.2019 15:00:00 11,0 10,0 5 3 O - 7 -
11.11.2019 14:00:00 10,0 9,0 5 3 OSO - 7 -
11.11.2019 13:00:00 9,5 8,9 5 3 O 1013,4 4,0 0
11.11.2019 12:00:00 9,0 8,0 5 3 O - 5 -
11.11.2019 11:00:00 9,0 8,0 5 3 O - 8 -
11.11.2019 10:00:00 8,9 8,1 9 5 O 1014,2 4,0 0
11.11.2019 09:00:00 10,0 9,0 8 4 O - 7 -
11.11.2019 08:00:00 13,0 11,0 5 3 O - 5 -
11.11.2019 07:00:00 13,0 10,0 5 3 O - 3,0 -
11.11.2019 06:00:00 11,0 9,0 5 3 - - - -
11.11.2019 05:00:00 10,0 8,0 15 8 NNE - - -
11.11.2019 04:00:00 10,5 7,8 4 2 N 1014,9 - 0
11.11.2019 03:00:00 10,0 9,0 5 3 ONO - - -
11.11.2019 02:00:00 10,0 8,0 4 2 - - - -
11.11.2019 01:00:00 9,7 8,0 5 3 NO 1014,8 - 0
11.11.2019 00:00:00 9,0 7,0 4 2 - - - -
10.11.2019 23:00:00 9,0 7,0 4 2 - - - -
10.11.2019 22:00:00 8,9 7,1 4 2 N 1013,6 - 0
10.11.2019 21:00:00 9,0 7,0 5 3 SO - - -
10.11.2019 20:00:00 10,0 7,0 4 2 - - - -
10.11.2019 19:00:00 11,4 6,8 4 2 N 1011,3 - 0
10.11.2019 18:00:00 13,0 7,0 2 1 O - - -
10.11.2019 17:00:00 14,0 7,0 4 2 - - - -
10.11.2019 16:00:00 14,5 6,5 8 4 NE 1010,1 - 38
10.11.2019 15:00:00 14,0 6,0 8 4 NNE - - -
10.11.2019 14:00:00 13,0 7,0 5 3 NNO - - -
10.11.2019 13:00:00 11,8 6,6 4 2 N 1010,2 - 60
10.11.2019 12:00:00 10,0 7,0 8 4 NO - - -
10.11.2019 11:00:00 9,0 7,0 8 4 ONO - - -
10.11.2019 10:00:00 7,1 6,2 9 5 O 1009,0 - 60
10.11.2019 09:00:00 7,0 6,0 8 4 O - - -
10.11.2019 08:00:00 7,0 6,0 5 3 O - - -
10.11.2019 07:00:00 7,3 6,7 5 3 O 1008,9 - 0
10.11.2019 06:00:00 8,0 7,0 5 3 O - - -
10.11.2019 05:00:00 8,0 7,0 5 3 O - - -
10.11.2019 04:00:00 8,7 7,3 9 5 ONO 1008,9 - 0
10.11.2019 03:00:00 10,0 8,0 8 4 ONO - - -
10.11.2019 02:00:00 10,0 8,0 8 4 ONO - - -
10.11.2019 01:00:00 10,5 8,3 4 2 N 1008,9 - 0
10.11.2019 00:00:00 11,0 8,0 8 4 NO - - -
09.11.2019 23:00:00 12,0 8,0 5 3 NO - - -
09.11.2019 22:00:00 10,8 8,2 5 3 ONO 1009,6 - 0
09.11.2019 21:00:00 11,0 7,0 9 5 NNE - - -
09.11.2019 20:00:00 11,0 7,0 5 3 ONO - - -
09.11.2019 19:00:00 11,5 7,1 4 2 - 1009,5 - 0
09.11.2019 18:00:00 13,0 6,0 4 2 - - - -
09.11.2019 17:00:00 15,0 7,0 4 2 - - - -
09.11.2019 16:00:00 15,2 6,9 4 2 N 1009,2 - 0
09.11.2019 15:00:00 15,0 6,0 5 3 N - - -
09.11.2019 14:00:00 15,0 6,0 5 3 NNE - - -
09.11.2019 13:00:00 13,4 6,7 8 4 ESE 1010,1 - 60
09.11.2019 12:00:00 13,0 7,0 4 2 - - - -
09.11.2019 11:00:00 9,0 7,0 5 3 O - - -
09.11.2019 10:00:00 7,1 6,0 5 3 O 1009,4 - 59
09.11.2019 09:00:00 7,0 5,0 4 2 - - - -
09.11.2019 08:00:00 7,0 5,0 4 2 - - - -
09.11.2019 07:00:00 7,1 6,0 4 2 N 1007,3 - 0
09.11.2019 06:00:00 8,0 7,0 5 3 SO - - -
09.11.2019 05:00:00 9,0 7,0 4 2 - - - -
09.11.2019 04:00:00 9,7 9,0 5 3 SO 1005,7 - 0
09.11.2019 03:00:00 10,0 10,0 5 3 - - - -
09.11.2019 02:00:00 11,0 10,0 4 2 - - - -
09.11.2019 01:00:00 11,0 10,2 4 2 N 1005,4 - 0
09.11.2019 00:00:00 11,0 10,0 4 2 - - - -
08.11.2019 23:00:00 11,0 10,0 4 2 - - - -
08.11.2019 22:00:00 11,9 10,4 2 1 N 1004,4 - 0
08.11.2019 21:00:00 13,0 11,0 2 1 - - - -
08.11.2019 20:00:00 14,0 13,0 2 1 - - - -
08.11.2019 19:00:00 14,0 12,5 4 2 N 1003,4 10 0
08.11.2019 18:00:00 14,0 13,0 4 2 - - 10 -
08.11.2019 17:00:00 14,0 12,0 2 1 O - 10 -
08.11.2019 16:00:00 13,8 12,5 2 1 - 1002,3 10 0
08.11.2019 15:00:00 15,0 12,0 4 2 - - 10 -
08.11.2019 14:00:00 16,0 10,0 4 2 - - 10 -
08.11.2019 13:00:00 16,2 10,5 5 3 SO 1002,4 10 0
08.11.2019 12:00:00 15,0 9,0 11 6 - - 10 -
08.11.2019 11:00:00 14,0 9,0 11 6 - - 10 -
08.11.2019 10:00:00 12,9 10,4 4 2 N 1002,9 20 0
08.11.2019 09:00:00 14,0 10,0 9 5 - - 10 -
08.11.2019 08:00:00 15,0 8,0 8 4 - - - -
08.11.2019 07:00:00 15,3 8,4 4 2 N 1003,7 5 0
08.11.2019 06:00:00 - - - - - - - -
08.11.2019 05:00:00 15,0 9,0 11 6 - - - -
08.11.2019 04:00:00 14,0 9,4 9 5 - 1004,9 - 0
08.11.2019 03:00:00 14,0 10,0 8 4 - - - -
08.11.2019 02:00:00 13,0 9,0 8 4 - - - -
08.11.2019 01:00:00 11,4 8,5 4 2 N 1006,9 - 0
08.11.2019 00:00:00 11,0 8,0 5 3 - - - -
07.11.2019 23:00:00 12,0 9,0 4 2 - - - -
07.11.2019 22:00:00 12,4 10,3 4 2 - 1008,0 - 0
07.11.2019 21:00:00 13,0 11,0 4 2 - - - -
07.11.2019 20:00:00 14,0 11,0 4 2 - - - -
07.11.2019 19:00:00 14,2 10,9 5 3 - 1008,0 10 0
07.11.2019 18:00:00 15,0 10,0 5 3 - - 10 -
07.11.2019 17:00:00 16,0 11,0 11 6 SE - 10 -
07.11.2019 16:00:00 16,2 10,4 11 6 ESE 1008,3 25 40
07.11.2019 15:00:00 16,0 10,0 11 6 ESE - 10 -
07.11.2019 14:00:00 15,0 9,0 9 5 E - 10 -
07.11.2019 13:00:00 13,8 8,8 8 4 NE 1009,3 20 60
07.11.2019 12:00:00 12,0 8,0 5 3 NE - 10 -
07.11.2019 11:00:00 - - - - - - - -
07.11.2019 10:00:00 8,3 7,1 4 2 N 1008,8 15 57
07.11.2019 09:00:00 8,0 7,0 4 2 - - 10 -
07.11.2019 08:00:00 9,0 8,0 4 2 - - 7 -
07.11.2019 07:00:00 9,9 8,4 4 2 - 1007,3 4,0 0
07.11.2019 06:00:00 10,0 8,0 4 2 - - - -
07.11.2019 05:00:00 10,0 8,0 5 3 O - - -
07.11.2019 04:00:00 10,2 8,5 4 2 N 1006,6 - 0
07.11.2019 03:00:00 10,0 8,0 11 6 ONO - - -
07.11.2019 02:00:00 10,0 8,0 9 5 ONO - - -
07.11.2019 01:00:00 10,2 7,5 9 5 ONO 1005,8 - 0
07.11.2019 00:00:00 10,0 8,0 5 3 O - - -

tt = Temperatura
td = dewpoint
ff = velocità del vento
dd = direzione del vento
ppp = reduced air pressure
vv = visibility
sd = ore di luce

Stazioni seguenti

WeatherPro
AMSI
MeteoEarth